Location: ????????
(55.5667°N, 37.5833°E)
Time: 05:45:45
(UTC+00:00)

Cosmos 1954 Rocket - Pass Details

Date: 14 April 2026
Orbit: 748 x 776 km, 74.0° (Epoch: 10 May)

Event Time Altitude Azimuth Distance (km) Brightness Sun altitude
Rises 21:14:17 0° 331° (NNW) 3,258 8.3 -24.7°
Reaches altitude 10° 21:16:41 10° 332° (NNW) 2,324 7.4 -24.7°
Maximum altitude 21:21:58 90° 49° (NE) 773 3.9 -24.8°
Enters shadow 21:22:31 73° 152° (SSE) 805 3.8 -24.8°
